Tracking 19476 objects as of 17-Jan-2019
HD Live streaming from Space Station
objects crossing your sky now

COSMOS 1192

Track COSMOS 1192 now!
10-day predictions
COSMOS 1192 is classified as:


NORAD ID: 11875
Int'l Code: 1980-058A
Perigee: 1,402.3 km
Apogee: 1,481.3 km
Inclination: 74.0 °
Period: 114.5 minutes
Semi major axis: 7812 km
RCS: 0.6991 m2 (medium)
Launch date: July 9, 1980
Source: Commonwealth of Independent States (former USSR) (CIS)
Launch site: PLESETSK MISSILE AND SPACE COMPLEX (PKMTR)
aabbcc
Your satellite tracking list
Your tracking list is empty




NASA's NSSDC Master Catalog

Two Line Element Set (TLE):
1 11875U 80058A   19015.58071697 -.00000016  00000-0  11839-5 0  9997
2 11875  74.0184  67.9466 0050590 284.7664 188.4044 12.57162539768025
Source of the keplerian elements: AFSPC